Wind From: 11-12-2017 04:25 Until: 16:00 warning for: Wind Level: Orange info button

Power and phone distribution networks may be disrupted for relatively long periods., Roofs and chimneys can be damaged. , Tree branches may break. , Vehicles can be deported. , Traffic may be disrupted, particularly on secondary roads in forest areas. Limit your trips. , Limit your speed in highway driving, especially if you drive a vehicle or hitch sensitive to wind. , Do not go for walks in forests or along the coast., In town, be vigilant against possible falling objects., Do not work on roofs and do not touch any electrical line fallen on the ground., Store or secure sensitive objects to wind or likely to be damaged., Always install power generators outside buildings. 


Meteo18 Weather Cam more information Meteo18 Weather Cam


Thunder radar more information blitzortung!


Rain radar more information rain snow radar


Visit our other weather sites:

Template documentation
and downloads

And another site



Weather Underground History page Text

Daily Summary for September 12, 2016 Units:  Metric    English   Both
« Previous Day
Next Day »
Daily Weekly Monthly Yearly Custom
  High: Low: Average:
Temperature: 32.9 °C 17.4 °C 24.6 °C
Dew Point: 15.8 °C 12.5 °C 13.8 °C
Humidity: 76 % 31 % 54 %
Wind Speed: 14.5 km/h 0.0 km/h 2.2 km/h
Wind Gust: 19.3 km/h - -
Wind:- - SSE
Pressure: 1016.1 hPa 1011.7 hPa -
Precipitation: 0.0 mm    
Historical Graphs
 
 
Tabular Data for September 12, 2016
Time Temperature Dew Point Pressure Wind Wind Speed Wind Gust Humidity Rainfall Rate (Hourly)
00:02 19.9 °C 12.9 °C 1016.1 hPa Calm     64 % 0.0 mm
00:07 19.7 °C 12.7 °C 1016.1 hPa Calm     64 % 0.0 mm
00:12 19.6 °C 13.1 °C 1016.1 hPa Calm     66 % 0.0 mm
00:17 19.7 °C 13.2 °C 1016.1 hPa Calm     66 % 0.0 mm
00:32 19.7 °C 13.2 °C 1016.1 hPa Calm     66 % 0.0 mm
00:37 19.7 °C 13.2 °C 1016.1 hPa Calm     66 % 0.0 mm
00:42 19.7 °C 13.2 °C 1015.8 hPa Calm     66 % 0.0 mm
00:47 19.7 °C 13.2 °C 1015.8 hPa Calm     66 % 0.0 mm
00:52 19.7 °C 13.2 °C 1015.8 hPa Calm     66 % 0.0 mm
00:57 19.8 °C 13.3 °C 1015.8 hPa Calm     66 % 0.0 mm
01:02 19.8 °C 13.0 °C 1015.8 hPa Calm     65 % 0.0 mm
01:07 19.8 °C 13.0 °C 1015.8 hPa Calm     65 % 0.0 mm
01:12 19.8 °C 13.0 °C 1015.8 hPa Calm     65 % 0.0 mm
01:17 19.8 °C 12.8 °C 1015.8 hPa Calm     64 % 0.0 mm
01:22 19.5 °C 12.7 °C 1015.8 hPa Calm     65 % 0.0 mm
01:27 19.4 °C 12.7 °C 1015.8 hPa Calm     65 % 0.0 mm
01:37 19.6 °C 12.8 °C 1015.8 hPa Calm     65 % 0.0 mm
01:42 19.3 °C 13.0 °C 1015.8 hPa Calm     67 % 0.0 mm
01:52 19.4 °C 13.1 °C 1015.5 hPa Calm     67 % 0.0 mm
01:57 19.3 °C 12.8 °C 1015.5 hPa Calm     66 % 0.0 mm
02:02 19.1 °C 12.8 °C 1015.8 hPa Calm     67 % 0.0 mm
02:07 19.0 °C 12.7 °C 1015.5 hPa Calm     67 % 0.0 mm
02:12 19.1 °C 13.1 °C 1015.5 hPa Calm     68 % 0.0 mm
02:17 19.0 °C 13.2 °C 1015.5 hPa Calm     69 % 0.0 mm
02:22 18.9 °C 13.1 °C 1015.5 hPa Calm     69 % 0.0 mm
02:27 18.9 °C 13.1 °C 1015.5 hPa Calm     69 % 0.0 mm
02:32 18.9 °C 13.1 °C 1015.5 hPa Calm     69 % 0.0 mm
02:37 18.9 °C 13.1 °C 1015.5 hPa Calm     69 % 0.0 mm
02:42 19.1 °C 13.1 °C 1015.5 hPa Calm     68 % 0.0 mm
02:47 19.2 °C 13.1 °C 1015.5 hPa Calm     68 % 0.0 mm
02:52 19.2 °C 12.9 °C 1015.1 hPa Calm     67 % 0.0 mm
02:57 19.3 °C 13.0 °C 1015.1 hPa Calm     67 % 0.0 mm
03:02 19.3 °C 13.0 °C 1015.1 hPa Calm     67 % 0.0 mm
03:07 19.2 °C 13.1 °C 1015.1 hPa Calm     68 % 0.0 mm
03:12 19.1 °C 13.1 °C 1015.1 hPa Calm     68 % 0.0 mm
03:17 19.0 °C 12.7 °C 1015.1 hPa Calm     67 % 0.0 mm
03:32 19.1 °C 13.1 °C 1014.8 hPa Calm     68 % 0.0 mm
03:37 19.3 °C 13.2 °C 1014.8 hPa Calm     68 % 0.0 mm
03:42 19.2 °C 13.1 °C 1014.8 hPa Calm     68 % 0.0 mm
03:47 19.1 °C 13.1 °C 1014.8 hPa Calm     68 % 0.0 mm
03:52 18.8 °C 12.8 °C 1014.8 hPa Calm     68 % 0.0 mm
03:57 18.4 °C 12.8 °C 1014.8 hPa Calm     70 % 0.0 mm
04:02 18.3 °C 12.7 °C 1014.4 hPa Calm     70 % 0.0 mm
04:07 18.3 °C 13.0 °C 1014.4 hPa Calm     71 % 0.0 mm
04:12 18.4 °C 13.0 °C 1014.4 hPa Calm     71 % 0.0 mm
04:17 18.4 °C 13.0 °C 1014.4 hPa Calm     71 % 0.0 mm
04:22 18.4 °C 12.8 °C 1014.4 hPa Calm     70 % 0.0 mm
04:27 18.1 °C 12.8 °C 1014.4 hPa Calm     71 % 0.0 mm
04:32 18.1 °C 13.0 °C 1014.4 hPa Calm     72 % 0.0 mm
04:37 18.2 °C 12.9 °C 1014.4 hPa Calm     71 % 0.0 mm
04:42 18.3 °C 13.0 °C 1014.4 hPa Calm     71 % 0.0 mm
04:47 18.1 °C 13.0 °C 1014.4 hPa Calm     72 % 0.0 mm
04:52 17.9 °C 13.0 °C 1014.4 hPa Calm     73 % 0.0 mm
04:57 17.8 °C 12.9 °C 1014.4 hPa Calm     73 % 0.0 mm
05:02 17.9 °C 13.0 °C 1014.4 hPa Calm     73 % 0.0 mm
05:12 18.1 °C 13.0 °C 1014.4 hPa Calm     72 % 0.0 mm
05:17 17.9 °C 13.0 °C 1014.1 hPa Calm   3.2 km/h 73 % 0.0 mm
05:22 17.8 °C 13.1 °C 1014.1 hPa North 1.6 km/h 3.2 km/h 74 % 0.0 mm
05:27 17.8 °C 12.9 °C 1014.1 hPa North 1.6 km/h 3.2 km/h 73 % 0.0 mm
05:32 17.8 °C 12.9 °C 1014.1 hPa NNE 3.2 km/h 3.2 km/h 73 % 0.0 mm
05:37 17.7 °C 13.0 °C 1014.1 hPa Calm   3.2 km/h 74 % 0.0 mm
05:42 17.8 °C 13.1 °C 1014.1 hPa NNW 1.6 km/h 3.2 km/h 74 % 0.0 mm
05:47 17.8 °C 13.1 °C 1014.1 hPa Calm   3.2 km/h 74 % 0.0 mm
05:52 17.8 °C 12.9 °C 1014.1 hPa NNW 1.6 km/h 3.2 km/h 73 % 0.0 mm
05:57 17.7 °C 13.0 °C 1014.1 hPa Calm   3.2 km/h 74 % 0.0 mm
06:02 17.6 °C 13.1 °C 1014.1 hPa Calm   3.2 km/h 75 % 0.0 mm
06:07 17.7 °C 13.2 °C 1014.1 hPa Calm   1.6 km/h 75 % 0.0 mm
06:12 17.6 °C 13.1 °C 1014.1 hPa Calm   1.6 km/h 75 % 0.0 mm
06:17 17.6 °C 13.1 °C 1014.1 hPa Calm   1.6 km/h 75 % 0.0 mm
06:22 17.9 °C 13.2 °C 1014.1 hPa Calm   1.6 km/h 74 % 0.0 mm
06:27 17.9 °C 13.0 °C 1014.1 hPa NW 1.6 km/h 1.6 km/h 73 % 0.0 mm
06:37 17.7 °C 13.0 °C 1014.1 hPa Calm   3.2 km/h 74 % 0.0 mm
06:42 17.8 °C 13.1 °C 1013.8 hPa Calm   3.2 km/h 74 % 0.0 mm
06:47 17.8 °C 12.9 °C 1013.8 hPa Calm   3.2 km/h 73 % 0.0 mm
06:52 17.7 °C 12.8 °C 1013.8 hPa WNW 1.6 km/h 3.2 km/h 73 % 0.0 mm
06:57 17.7 °C 13.0 °C 1013.8 hPa Calm   1.6 km/h 74 % 0.0 mm
07:02 17.9 °C 13.2 °C 1014.1 hPa Calm   1.6 km/h 74 % 0.0 mm
07:12 17.9 °C 13.0 °C 1014.1 hPa Calm   1.6 km/h 73 % 0.0 mm
07:17 18.1 °C 13.4 °C 1014.1 hPa Calm   1.6 km/h 74 % 0.0 mm
07:22 18.3 °C 13.2 °C 1013.8 hPa Calm   1.6 km/h 72 % 0.0 mm
07:32 17.8 °C 13.1 °C 1014.1 hPa Calm   1.6 km/h 74 % 0.0 mm
07:37 17.8 °C 13.1 °C 1014.1 hPa Calm     74 % 0.0 mm
07:42 17.7 °C 13.2 °C 1014.1 hPa Calm     75 % 0.0 mm
07:47 17.8 °C 13.3 °C 1013.8 hPa Calm     75 % 0.0 mm
07:52 17.9 °C 13.0 °C 1014.1 hPa Calm     73 % 0.0 mm
07:57 17.6 °C 12.9 °C 1014.1 hPa Calm     74 % 0.0 mm
08:02 17.4 °C 13.1 °C 1014.1 hPa WNW 1.6 km/h   76 % 0.0 mm
08:07 17.4 °C 12.9 °C 1014.1 hPa Calm   3.2 km/h 75 % 0.0 mm
08:12 17.4 °C 12.7 °C 1014.1 hPa Calm   3.2 km/h 74 % 0.0 mm
08:17 17.4 °C 12.5 °C 1014.1 hPa Calm   1.6 km/h 73 % 0.0 mm
08:22 17.6 °C 13.3 °C 1014.1 hPa Calm   1.6 km/h 76 % 0.0 mm
08:32 18.2 °C 13.7 °C 1014.1 hPa Calm   1.6 km/h 75 % 0.0 mm
08:37 18.4 °C 13.7 °C 1014.1 hPa Calm     74 % 0.0 mm
08:42 18.8 °C 13.9 °C 1014.1 hPa Calm     73 % 0.0 mm
08:47 19.0 °C 13.8 °C 1014.4 hPa Calm     72 % 0.0 mm
08:52 19.5 °C 14.3 °C 1014.4 hPa Calm     72 % 0.0 mm
08:57 20.2 °C 14.6 °C 1014.1 hPa Calm     70 % 0.0 mm
09:02 20.4 °C 14.5 °C 1014.1 hPa Calm     69 % 0.0 mm
09:12 21.3 °C 14.5 °C 1014.1 hPa SE 1.6 km/h 1.6 km/h 65 % 0.0 mm
09:17 21.1 °C 14.5 °C 1014.4 hPa SSE 1.6 km/h 4.8 km/h 66 % 0.0 mm
09:27 20.7 °C 14.4 °C 1014.4 hPa Calm   4.8 km/h 67 % 0.0 mm
09:32 20.8 °C 14.7 °C 1014.4 hPa SE 1.6 km/h 4.8 km/h 68 % 0.0 mm
09:42 21.3 °C 14.7 °C 1014.4 hPa SSW 1.6 km/h 4.8 km/h 66 % 0.0 mm
09:47 21.5 °C 14.9 °C 1014.4 hPa ESE 3.2 km/h 6.4 km/h 66 % 0.0 mm
09:52 21.7 °C 14.8 °C 1014.4 hPa SW 1.6 km/h 6.4 km/h 65 % 0.0 mm
09:57 21.9 °C 14.8 °C 1014.4 hPa WSW 1.6 km/h 6.4 km/h 64 % 0.0 mm
10:02 22.2 °C 15.1 °C 1014.4 hPa Calm   6.4 km/h 64 % 0.0 mm
10:12 22.5 °C 15.1 °C 1014.4 hPa Calm   4.8 km/h 63 % 0.0 mm
10:17 22.8 °C 15.1 °C 1014.4 hPa SE 3.2 km/h 6.4 km/h 62 % 0.0 mm
10:22 22.9 °C 15.2 °C 1014.4 hPa East 3.2 km/h 6.4 km/h 62 % 0.0 mm
10:32 23.3 °C 15.1 °C 1014.4 hPa SSW 3.2 km/h 6.4 km/h 60 % 0.0 mm
10:42 23.5 °C 15.5 °C 1014.4 hPa SSE 3.2 km/h 8.0 km/h 61 % 0.0 mm
10:47 23.8 °C 15.6 °C 1014.4 hPa ESE 3.2 km/h 8.0 km/h 60 % 0.0 mm
10:57 24.2 °C 15.4 °C 1014.4 hPa SSW 4.8 km/h 9.7 km/h 58 % 0.0 mm
11:02 24.5 °C 15.7 °C 1014.4 hPa South 4.8 km/h 11.3 km/h 58 % 0.0 mm
11:07 24.9 °C 15.8 °C 1014.4 hPa SW 1.6 km/h 11.3 km/h 57 % 0.0 mm
11:12 25.4 °C 15.7 °C 1014.4 hPa SE 1.6 km/h 11.3 km/h 55 % 0.0 mm
11:17 25.4 °C 15.4 °C 1014.4 hPa SW 3.2 km/h 12.9 km/h 54 % 0.0 mm
11:22 25.5 °C 15.5 °C 1014.4 hPa WSW 6.4 km/h 12.9 km/h 54 % 0.0 mm
11:27 25.7 °C 15.4 °C 1014.4 hPa SW 6.4 km/h 12.9 km/h 53 % 0.0 mm
11:37 26.1 °C 15.5 °C 1014.4 hPa SW 3.2 km/h 11.3 km/h 52 % 0.0 mm
11:42 26.3 °C 15.7 °C 1014.4 hPa South 1.6 km/h 11.3 km/h 52 % 0.0 mm
11:47 26.7 °C 15.4 °C 1014.4 hPa SE 4.8 km/h 8.0 km/h 50 % 0.0 mm
11:52 27.0 °C 15.4 °C 1014.4 hPa SSW 3.2 km/h 8.0 km/h 49 % 0.0 mm
12:02 27.1 °C 15.1 °C 1014.4 hPa South 9.7 km/h 14.5 km/h 48 % 0.0 mm
12:07 27.1 °C 15.1 °C 1014.4 hPa SE 4.8 km/h 14.5 km/h 48 % 0.0 mm
12:17 27.4 °C 15.1 °C 1014.4 hPa East 1.6 km/h 12.9 km/h 47 % 0.0 mm
12:22 27.4 °C 14.8 °C 1014.4 hPa SSW 4.8 km/h 12.9 km/h 46 % 0.0 mm
12:32 27.4 °C 15.1 °C 1014.4 hPa ESE 4.8 km/h 12.9 km/h 47 % 0.0 mm
12:37 27.6 °C 15.3 °C 1014.4 hPa WSW 1.6 km/h 9.7 km/h 47 % 0.0 mm
12:42 27.7 °C 15.4 °C 1014.4 hPa SE 3.2 km/h 9.7 km/h 47 % 0.0 mm
12:47 28.0 °C 15.3 °C 1014.4 hPa SSW 3.2 km/h 9.7 km/h 46 % 0.0 mm
12:52 28.4 °C 15.3 °C 1014.1 hPa SE 4.8 km/h 9.7 km/h 45 % 0.0 mm
12:57 28.3 °C 14.9 °C 1014.4 hPa SW 4.8 km/h 11.3 km/h 44 % 0.0 mm
13:02 28.4 °C 14.6 °C 1014.1 hPa WNW 9.7 km/h 11.3 km/h 43 % 0.0 mm
13:07 28.7 °C 14.1 °C 1014.4 hPa SSW 3.2 km/h 12.9 km/h 41 % 0.0 mm
13:12 28.9 °C 14.7 °C 1014.1 hPa SSE 6.4 km/h 12.9 km/h 42 % 0.0 mm
13:17 29.2 °C 14.6 °C 1014.1 hPa SSW 6.4 km/h 17.7 km/h 41 % 0.0 mm
13:22 29.5 °C 14.9 °C 1014.1 hPa SW 1.6 km/h 17.7 km/h 41 % 0.0 mm
13:27 29.7 °C 14.7 °C 1014.1 hPa SW 12.9 km/h 17.7 km/h 40 % 0.0 mm
13:32 29.6 °C 14.2 °C 1014.1 hPa WSW 14.5 km/h 14.5 km/h 39 % 0.0 mm
13:37 29.7 °C 14.7 °C 1013.8 hPa SSW 6.4 km/h 17.7 km/h 40 % 0.0 mm
13:42 30.1 °C 14.6 °C 1013.8 hPa ESE 6.4 km/h 17.7 km/h 39 % 0.0 mm
13:47 30.3 °C 14.8 °C 1013.8 hPa Calm   17.7 km/h 39 % 0.0 mm
13:52 30.3 °C 14.4 °C 1013.8 hPa WSW 6.4 km/h 12.9 km/h 38 % 0.0 mm
14:02 30.4 °C 14.5 °C 1013.8 hPa WSW 8.0 km/h 14.5 km/h 38 % 0.0 mm
14:07 30.3 °C 14.0 °C 1013.8 hPa Calm   14.5 km/h 37 % 0.0 mm
14:12 30.5 °C 13.7 °C 1013.8 hPa SW 9.7 km/h 17.7 km/h 36 % 0.0 mm
14:17 30.4 °C 13.7 °C 1013.4 hPa WSW 4.8 km/h 19.3 km/h 36 % 0.0 mm
14:22 30.6 °C 13.4 °C 1013.4 hPa WSW 6.4 km/h 19.3 km/h 35 % 0.0 mm
14:27 30.8 °C 13.6 °C 1013.4 hPa South 4.8 km/h 16.1 km/h 35 % 0.0 mm
14:32 30.9 °C 13.7 °C 1013.4 hPa SW 6.4 km/h 16.1 km/h 35 % 0.0 mm
14:37 31.0 °C 13.7 °C 1013.4 hPa SW 4.8 km/h 16.1 km/h 35 % 0.0 mm
14:42 31.1 °C 13.8 °C 1013.4 hPa SW 9.7 km/h 16.1 km/h 35 % 0.0 mm
14:47 31.4 °C 14.1 °C 1013.1 hPa SE 9.7 km/h 17.7 km/h 35 % 0.0 mm
14:52 31.6 °C 13.4 °C 1013.1 hPa SW 8.0 km/h 17.7 km/h 33 % 0.0 mm
14:57 31.5 °C 13.7 °C 1013.1 hPa South 4.8 km/h 14.5 km/h 34 % 0.0 mm
15:02 31.7 °C 13.5 °C 1013.1 hPa SSE 11.3 km/h 14.5 km/h 33 % 0.0 mm
15:07 31.6 °C 13.4 °C 1013.1 hPa South 8.0 km/h 14.5 km/h 33 % 0.0 mm
15:12 31.3 °C 13.1 °C 1013.1 hPa SSW 4.8 km/h 16.1 km/h 33 % 0.0 mm
15:17 31.3 °C 12.6 °C 1013.1 hPa SW 11.3 km/h 16.1 km/h 32 % 0.0 mm
15:22 31.1 °C 12.9 °C 1013.1 hPa West 11.3 km/h 16.1 km/h 33 % 0.0 mm
15:27 31.1 °C 13.4 °C 1013.1 hPa Calm   16.1 km/h 34 % 0.0 mm
15:32 31.6 °C 13.8 °C 1013.1 hPa SE 1.6 km/h 14.5 km/h 34 % 0.0 mm
15:42 31.7 °C 13.5 °C 1012.8 hPa ESE 1.6 km/h 14.5 km/h 33 % 0.0 mm
15:47 31.8 °C 13.5 °C 1012.8 hPa SW 6.4 km/h 14.5 km/h 33 % 0.0 mm
15:52 32.1 °C 13.8 °C 1012.8 hPa SSE 6.4 km/h 12.9 km/h 33 % 0.0 mm
15:57 32.0 °C 13.2 °C 1012.8 hPa SSE 4.8 km/h 12.9 km/h 32 % 0.0 mm
16:02 32.2 °C 13.4 °C 1012.8 hPa Calm   12.9 km/h 32 % 0.0 mm
16:07 32.3 °C 13.0 °C 1012.8 hPa South 8.0 km/h 11.3 km/h 31 % 0.0 mm
16:12 31.8 °C 13.5 °C 1012.4 hPa SSW 8.0 km/h 14.5 km/h 33 % 0.0 mm
16:17 31.9 °C 13.6 °C 1012.4 hPa SW 11.3 km/h 16.1 km/h 33 % 0.0 mm
16:22 31.8 °C 13.5 °C 1012.4 hPa SSW 1.6 km/h 16.1 km/h 33 % 0.0 mm
16:27 31.9 °C 13.6 °C 1012.4 hPa SSE 4.8 km/h 16.1 km/h 33 % 0.0 mm
16:32 31.9 °C 13.2 °C 1012.4 hPa SW 3.2 km/h 14.5 km/h 32 % 0.0 mm
16:42 32.1 °C 13.3 °C 1012.4 hPa SE 1.6 km/h 14.5 km/h 32 % 0.0 mm
16:47 32.1 °C 13.3 °C 1012.4 hPa WSW 9.7 km/h 14.5 km/h 32 % 0.0 mm
16:52 32.2 °C 13.4 °C 1012.1 hPa West 1.6 km/h 16.1 km/h 32 % 0.0 mm
16:57 32.4 °C 13.1 °C 1012.1 hPa SE 3.2 km/h 16.1 km/h 31 % 0.0 mm
17:02 32.6 °C 13.3 °C 1012.1 hPa WNW 1.6 km/h 16.1 km/h 31 % 0.0 mm
17:07 32.4 °C 13.1 °C 1012.1 hPa South 1.6 km/h 8.0 km/h 31 % 0.0 mm
17:12 32.3 °C 14.0 °C 1012.1 hPa WSW 3.2 km/h 8.0 km/h 33 % 0.0 mm
17:17 32.5 °C 13.7 °C 1012.1 hPa East 4.8 km/h 8.0 km/h 32 % 0.0 mm
17:22 32.4 °C 13.6 °C 1012.1 hPa Calm   9.7 km/h 32 % 0.0 mm
17:27 32.7 °C 13.8 °C 1012.1 hPa Calm   9.7 km/h 32 % 0.0 mm
17:32 32.9 °C 14.0 °C 1012.1 hPa ENE 4.8 km/h 9.7 km/h 32 % 0.0 mm
17:37 32.7 °C 13.4 °C 1011.7 hPa South 3.2 km/h 6.4 km/h 31 % 0.0 mm
17:42 32.8 °C 13.4 °C 1012.1 hPa SW 8.0 km/h 8.0 km/h 31 % 0.0 mm
17:47 32.4 °C 13.1 °C 1012.1 hPa SSW 4.8 km/h 9.7 km/h 31 % 0.0 mm
17:52 32.1 °C 13.3 °C 1011.7 hPa SSW 3.2 km/h 9.7 km/h 32 % 0.0 mm
17:57 31.9 °C 13.2 °C 1011.7 hPa SE 1.6 km/h 9.7 km/h 32 % 0.0 mm
18:02 32.1 °C 13.3 °C 1011.7 hPa Calm   9.7 km/h 32 % 0.0 mm
18:07 32.1 °C 13.3 °C 1011.7 hPa SE 1.6 km/h 4.8 km/h 32 % 0.0 mm
18:12 32.3 °C 13.5 °C 1011.7 hPa East 1.6 km/h 4.8 km/h 32 % 0.0 mm
18:17 32.1 °C 13.3 °C 1011.7 hPa Calm   4.8 km/h 32 % 0.0 mm
18:22 31.9 °C 13.6 °C 1011.7 hPa WSW 1.6 km/h 4.8 km/h 33 % 0.0 mm
18:32 32.3 °C 13.5 °C 1011.7 hPa Calm   9.7 km/h 32 % 0.0 mm
18:37 32.6 °C 13.8 °C 1011.7 hPa Calm   3.2 km/h 32 % 0.0 mm
18:42 32.2 °C 14.3 °C 1011.7 hPa ENE 3.2 km/h 3.2 km/h 34 % 0.0 mm
18:47 31.8 °C 14.0 °C 1011.7 hPa Calm   6.4 km/h 34 % 0.0 mm
18:52 31.6 °C 13.8 °C 1011.7 hPa ENE 3.2 km/h 6.4 km/h 34 % 0.0 mm
18:57 31.4 °C 14.1 °C 1011.7 hPa ENE 3.2 km/h 6.4 km/h 35 % 0.0 mm
19:02 31.1 °C 14.3 °C 1011.7 hPa ENE 1.6 km/h 6.4 km/h 36 % 0.0 mm
19:07 30.9 °C 14.1 °C 1011.7 hPa NE 1.6 km/h 6.4 km/h 36 % 0.0 mm
19:12 30.7 °C 13.9 °C 1011.7 hPa ENE 3.2 km/h 6.4 km/h 36 % 0.0 mm
19:17 30.5 °C 14.2 °C 1011.7 hPa NE 1.6 km/h 4.8 km/h 37 % 0.0 mm
19:22 30.3 °C 14.0 °C 1011.7 hPa NE 3.2 km/h 3.2 km/h 37 % 0.0 mm
19:32 29.8 °C 14.4 °C 1011.7 hPa NE 3.2 km/h 4.8 km/h 39 % 0.0 mm
19:42 29.4 °C 14.4 °C 1011.7 hPa Calm   6.4 km/h 40 % 0.0 mm
19:47 29.2 °C 14.6 °C 1011.7 hPa NE 1.6 km/h 4.8 km/h 41 % 0.0 mm
19:52 28.9 °C 14.3 °C 1011.7 hPa Calm   3.2 km/h 41 % 0.0 mm
19:57 28.7 °C 14.9 °C 1011.7 hPa Calm   4.8 km/h 43 % 0.0 mm
20:02 28.4 °C 15.0 °C 1011.7 hPa Calm   4.8 km/h 44 % 0.0 mm
20:12 28.2 °C 14.8 °C 1011.7 hPa NNW 4.8 km/h 4.8 km/h 44 % 0.0 mm
20:17 28.1 °C 14.7 °C 1012.1 hPa North 3.2 km/h 6.4 km/h 44 % 0.0 mm
20:22 27.9 °C 14.5 °C 1012.1 hPa Calm   6.4 km/h 44 % 0.0 mm
20:27 27.9 °C 14.2 °C 1012.1 hPa Calm   6.4 km/h 43 % 0.0 mm
20:32 27.7 °C 14.0 °C 1012.1 hPa NNE 1.6 km/h 6.4 km/h 43 % 0.0 mm
20:37 27.6 °C 13.9 °C 1012.1 hPa North 3.2 km/h 3.2 km/h 43 % 0.0 mm
20:42 27.5 °C 13.8 °C 1012.1 hPa Calm   4.8 km/h 43 % 0.0 mm
20:57 26.9 °C 14.3 °C 1012.1 hPa NNE 1.6 km/h 4.8 km/h 46 % 0.0 mm
21:02 26.9 °C 14.3 °C 1012.1 hPa NNE 3.2 km/h 4.8 km/h 46 % 0.0 mm
21:07 27.0 °C 14.4 °C 1012.1 hPa Calm   6.4 km/h 46 % 0.0 mm
21:17 27.1 °C 14.1 °C 1012.1 hPa NNE 4.8 km/h 6.4 km/h 45 % 0.0 mm
21:22 27.1 °C 14.1 °C 1012.1 hPa NE 1.6 km/h 9.7 km/h 45 % 0.0 mm
21:32 26.9 °C 13.6 °C 1012.4 hPa North 4.8 km/h 8.0 km/h 44 % 0.0 mm
21:37 26.9 °C 13.6 °C 1012.4 hPa North 1.6 km/h 6.4 km/h 44 % 0.0 mm
21:42 26.8 °C 13.5 °C 1012.4 hPa Calm   6.4 km/h 44 % 0.0 mm
21:47 26.6 °C 13.7 °C 1012.4 hPa North 3.2 km/h 6.4 km/h 45 % 0.0 mm
21:52 26.4 °C 13.5 °C 1012.4 hPa NE 1.6 km/h 4.8 km/h 45 % 0.0 mm
22:02 26.6 °C 13.7 °C 1012.4 hPa NNE 6.4 km/h 9.7 km/h 45 % 0.0 mm
22:07 26.6 °C 13.7 °C 1012.4 hPa NNE 6.4 km/h 9.7 km/h 45 % 0.0 mm
22:12 26.6 °C 13.7 °C 1012.1 hPa North 6.4 km/h 11.3 km/h 45 % 0.0 mm
22:17 26.6 °C 13.7 °C 1012.4 hPa NE 3.2 km/h 11.3 km/h 45 % 0.0 mm
22:22 26.6 °C 14.0 °C 1012.1 hPa ENE 1.6 km/h 11.3 km/h 46 % 0.0 mm
22:32 26.6 °C 14.0 °C 1012.4 hPa NNE 6.4 km/h 11.3 km/h 46 % 0.0 mm
22:37 26.5 °C 13.9 °C 1012.4 hPa NE 4.8 km/h 11.3 km/h 46 % 0.0 mm
22:42 26.4 °C 14.2 °C 1012.4 hPa NE 4.8 km/h 9.7 km/h 47 % 0.0 mm
22:47 26.2 °C 14.0 °C 1012.4 hPa NNE 1.6 km/h 8.0 km/h 47 % 0.0 mm
22:52 26.2 °C 14.3 °C 1012.4 hPa NNE 6.4 km/h 8.0 km/h 48 % 0.0 mm
22:57 26.1 °C 14.2 °C 1012.4 hPa NE 3.2 km/h 8.0 km/h 48 % 0.0 mm
23:02 25.9 °C 14.0 °C 1012.4 hPa Calm   8.0 km/h 48 % 0.0 mm
23:12 25.7 °C 14.2 °C 1012.4 hPa Calm   4.8 km/h 49 % 0.0 mm
23:17 25.6 °C 14.1 °C 1012.4 hPa Calm   4.8 km/h 49 % 0.0 mm
23:22 25.6 °C 14.1 °C 1012.4 hPa Calm   4.8 km/h 49 % 0.0 mm
23:32 25.6 °C 14.4 °C 1012.4 hPa Calm     50 % 0.0 mm
23:42 25.4 °C 14.2 °C 1012.4 hPa Calm     50 % 0.0 mm
23:47 25.5 °C 14.3 °C 1012.4 hPa Calm     50 % 0.0 mm
23:52 25.4 °C 14.5 °C 1012.4 hPa NE 1.6 km/h   51 % 0.0 mm
23:57 25.5 °C 14.3 °C 1012.4 hPa NE 1.6 km/h 6.4 km/h 50 % 0.0 mm
Meteo18
Compliments of Weather Underground - 4 mb

Script developed by  Jim McMurry - jmcmurry@mwt.net Adapted for the template by  Wim van der Kuil - Leuven-Template.eu

You find our weather info also at:

European Weather Network

Weather Underground

Equipment we use:

Weather-station
Davis Vue

Weather-program
Meteohub

Weather-server
Raspberry PI 2 B+

Provider
1 and 1

Davis Vue

Meteohub

Raspberry PI 2 B+

1 and 1